Weather reports worldwide

Advertisment
Monte Scuro, Italy (16344): temperature & dewpoint: 10.08.2018 18:00:00 - 16.08.2018 18:00:00 (CEST)Monte Scuro, Italy (16344): wind speed: 10.08.2018 18:00:00 - 16.08.2018 18:00:00 (CEST)Monte Scuro, Italy (16344): wind direction: 10.08.2018 18:00:00 - 16.08.2018 18:00:00 (CEST)Monte Scuro, Italy (16344): visibility: 10.08.2018 18:00:00 - 16.08.2018 18:00:00 (CEST)Monte Scuro, Italy (16344): sunshine duration: 10.08.2018 18:00:00 - 16.08.2018 18:00:00 (CEST)
Date & Time tt [°C] td [°C] ff [km/h] ff [kn] dd vv [km] sd [min]
16.08.2018 18:00:00 14,8 12,8 8 4 NNE 20 18
16.08.2018 17:00:00 16,0 14,4 9 5 W 20 24
16.08.2018 16:00:00 17,0 13,0 13 7 W 25 42
16.08.2018 15:00:00 15,6 13,4 9 5 W 20 18
16.08.2018 14:00:00 15,0 14,5 4 2 W - 0
16.08.2018 13:00:00 15,8 15,0 8 4 W 20 48
16.08.2018 12:00:00 15,6 13,4 8 4 W 25 54
16.08.2018 11:00:00 16,2 10,3 4 2 SSE 25 60
16.08.2018 10:00:00 16,0 9,2 0 0 N 20 60
16.08.2018 09:00:00 16,0 9,0 0 0 N 20 60
16.08.2018 08:00:00 16,2 11,2 0 0 N 20 60
16.08.2018 07:00:00 14,2 7,7 0 0 N 20 -
16.08.2018 06:00:00 13,0 8,7 0 0 N 15 -
16.08.2018 05:00:00 13,0 8,7 0 0 N 15 -
16.08.2018 04:00:00 13,0 7,7 0 0 N 15 -
16.08.2018 03:00:00 13,0 10,5 0 0 N 15 -
16.08.2018 02:00:00 13,0 10,5 0 0 N 15 -
16.08.2018 01:00:00 - - - - - - -
16.08.2018 00:00:00 13,4 10,0 0 0 N 15 -
15.08.2018 23:00:00 13,4 9,7 0 0 N 15 -
15.08.2018 22:00:00 13,6 8,7 0 0 N 15 -
15.08.2018 21:00:00 13,8 10,4 9 5 W 15 -
15.08.2018 20:00:00 14,2 11,2 11 6 W 15 0
15.08.2018 19:00:00 15,2 10,2 18 10 W 15 60
15.08.2018 18:00:00 - - - - - - -
15.08.2018 17:00:00 15,2 12,7 15 8 W 15 36
15.08.2018 16:00:00 15,0 12,0 11 6 W 15 24
15.08.2018 15:00:00 16,0 12,7 11 6 W 15 36
15.08.2018 14:00:00 15,0 12,5 11 6 W 15 30
15.08.2018 13:00:00 15,0 14,2 9 5 W 10 0
15.08.2018 12:00:00 14,6 12,1 9 5 W 15 36
15.08.2018 11:00:00 14,2 10,8 9 5 W 15 36
15.08.2018 10:00:00 12,0 8,3 24 13 W 20 0
15.08.2018 09:00:00 11,0 10,2 22 12 W 15 0
15.08.2018 08:00:00 11,0 10,7 11 6 W - -
15.08.2018 07:00:00 12,0 12,0 11 6 W - -
15.08.2018 06:00:00 14,2 10,8 13 7 W 10 -
15.08.2018 05:00:00 14,2 11,7 13 7 WSW 10 -
15.08.2018 04:00:00 14,4 11,9 11 6 WSW 10 -
15.08.2018 03:00:00 14,2 12,1 11 6 WSW 10 -
15.08.2018 02:00:00 14,6 11,7 9 5 WSW 10 -
15.08.2018 01:00:00 15,0 11,2 9 5 WSW 10 -
15.08.2018 00:00:00 15,0 11,2 13 7 WSW 10 -
14.08.2018 23:00:00 15,0 12,0 15 8 SW 10 -
14.08.2018 22:00:00 15,4 11,6 15 8 WSW 10 -
14.08.2018 21:00:00 15,8 9,2 15 8 WSW 10 -
14.08.2018 20:00:00 15,4 15,4 13 7 WSW 15 0
14.08.2018 19:00:00 17,0 15,4 18 10 W 20 0
14.08.2018 18:00:00 19,0 15,1 26 14 W 25 60
14.08.2018 17:00:00 19,2 14,7 28 15 W 25 60
14.08.2018 16:00:00 19,0 14,5 18 10 W 25 60
14.08.2018 15:00:00 20,0 15,4 24 13 W 25 60
14.08.2018 14:00:00 19,8 15,0 22 12 W 25 60
14.08.2018 13:00:00 19,8 11,8 18 10 WSW 25 60
14.08.2018 12:00:00 19,8 10,5 15 8 WSW 25 60
14.08.2018 11:00:00 19,0 8,7 9 5 SW 25 60
14.08.2018 10:00:00 19,0 8,4 11 6 SW 30 60
14.08.2018 09:00:00 19,0 8,4 11 6 SSW 30 60
14.08.2018 08:00:00 16,8 7,6 11 6 SSW 20 24
14.08.2018 07:00:00 16,4 6,7 11 6 SSW 10 -
14.08.2018 06:00:00 16,6 8,0 11 6 SSW 10 -
14.08.2018 05:00:00 16,8 8,6 11 6 SW 10 -
14.08.2018 04:00:00 16,6 8,0 11 6 SSW 10 -
14.08.2018 03:00:00 16,8 7,6 11 6 SW 10 -
14.08.2018 02:00:00 16,8 7,6 15 8 SSW 10 -
14.08.2018 01:00:00 16,6 7,4 15 8 SSW 10 -
14.08.2018 00:00:00 - - - - - - -
13.08.2018 23:00:00 16,6 7,4 11 6 SW 10 -
13.08.2018 22:00:00 16,8 7,0 15 8 SW 10 -
13.08.2018 21:00:00 16,8 7,6 15 8 SSW 10 -
13.08.2018 20:00:00 19,0 11,6 18 10 SW 20 36
13.08.2018 19:00:00 19,0 11,6 11 6 SSW 20 60
13.08.2018 18:00:00 19,8 13,3 11 6 SSW 20 60
13.08.2018 17:00:00 20,0 12,0 11 6 SSW 20 60
13.08.2018 16:00:00 20,2 13,3 11 6 SSW 15 54
13.08.2018 15:00:00 20,4 13,0 11 6 SSW 15 60
13.08.2018 14:00:00 20,0 11,5 18 10 SSW 20 60
13.08.2018 13:00:00 20,0 11,5 18 10 SSW 20 60
13.08.2018 12:00:00 20,0 10,6 8 4 SSW 20 54
13.08.2018 11:00:00 19,4 10,0 11 6 SSW 15 60
13.08.2018 10:00:00 18,8 9,3 5 3 WSW 25 60
13.08.2018 09:00:00 19,0 8,7 9 5 WSW 25 60
13.08.2018 08:00:00 17,8 8,7 4 2 WSW 20 60
13.08.2018 07:00:00 15,8 6,5 9 5 SSW 20 -
13.08.2018 06:00:00 15,4 6,1 0 0 N 15 -
13.08.2018 05:00:00 15,8 6,2 4 2 WSW 15 -
13.08.2018 04:00:00 16,0 6,2 4 2 WSW 15 -
13.08.2018 03:00:00 17,0 7,1 4 2 SW 15 -
13.08.2018 02:00:00 17,0 6,2 4 2 WSW 15 -
13.08.2018 01:00:00 17,2 7,3 5 3 WSW 15 -
13.08.2018 00:00:00 17,2 6,7 5 3 SW 15 -
12.08.2018 23:00:00 17,2 6,7 5 3 SW 15 -
12.08.2018 22:00:00 17,0 15,0 0 0 N 15 -
12.08.2018 21:00:00 17,0 15,4 5 3 W 15 -
12.08.2018 20:00:00 18,0 16,0 9 5 WNW 20 24
12.08.2018 19:00:00 18,0 16,3 11 6 W 25 60
12.08.2018 18:00:00 17,4 17,1 13 7 W 25 60
12.08.2018 17:00:00 15,2 14,9 8 4 WSW 20 6
12.08.2018 16:00:00 18,6 15,7 11 6 WSW 15 12
12.08.2018 15:00:00 19,4 15,9 11 6 W 25 30
12.08.2018 14:00:00 20,4 16,8 5 3 W 25 60
12.08.2018 13:00:00 20,2 16,2 8 4 WNW 25 60
12.08.2018 12:00:00 21,4 15,7 0 0 N 25 60
12.08.2018 11:00:00 19,6 12,1 4 2 NE 25 60
12.08.2018 10:00:00 18,6 13,0 11 6 NE 20 60
12.08.2018 09:00:00 18,2 15,1 11 6 NNE 20 60
12.08.2018 08:00:00 17,6 14,5 9 5 NNE 20 60
12.08.2018 07:00:00 16,6 14,1 11 6 NE 20 -
12.08.2018 06:00:00 16,6 13,9 9 5 NE 15 -
12.08.2018 05:00:00 16,6 13,9 11 6 NE 10 -
12.08.2018 04:00:00 16,6 13,9 11 6 NE 10 -
12.08.2018 03:00:00 16,4 14,1 4 2 ENE 10 -
12.08.2018 02:00:00 16,4 14,1 4 2 ENE 10 -
12.08.2018 01:00:00 16,8 15,2 15 8 ENE 10 -
12.08.2018 00:00:00 16,8 15,2 15 8 ENE 10 -
11.08.2018 23:00:00 17,0 15,2 15 8 NE 10 -
11.08.2018 22:00:00 17,0 15,0 11 6 NE 10 -
11.08.2018 21:00:00 17,0 16,2 11 6 NE 10 -
11.08.2018 20:00:00 17,8 15,3 11 6 W 15 0
11.08.2018 19:00:00 18,0 15,6 9 5 W 15 60
11.08.2018 18:00:00 18,0 11,5 15 8 W 20 60
11.08.2018 17:00:00 16,6 13,1 15 8 W 20 0
11.08.2018 16:00:00 17,0 17,0 15 8 W - 60
11.08.2018 15:00:00 19,0 18,7 9 5 W - 0
11.08.2018 14:00:00 19,0 18,7 15 8 W 10 30
11.08.2018 13:00:00 19,6 18,3 4 2 W 20 42
11.08.2018 12:00:00 20,0 17,2 5 3 W 20 60
11.08.2018 11:00:00 20,4 16,6 0 0 N 20 60
11.08.2018 10:00:00 19,4 12,7 18 10 SSW 15 60
11.08.2018 09:00:00 19,0 13,0 18 10 SSW 15 60
11.08.2018 08:00:00 18,6 14,7 11 6 SSW 15 60
11.08.2018 07:00:00 17,0 13,9 0 0 N 15 -
11.08.2018 06:00:00 16,8 15,2 0 0 N 10 -
11.08.2018 05:00:00 16,6 14,1 0 0 N 10 -
11.08.2018 04:00:00 17,0 11,1 0 0 N 10 -
11.08.2018 03:00:00 17,0 11,1 0 0 N 10 -
11.08.2018 02:00:00 17,0 11,1 0 0 N 10 -
11.08.2018 01:00:00 17,0 11,9 0 0 N 10 -
11.08.2018 00:00:00 17,0 11,5 0 0 N 10 -
10.08.2018 23:00:00 17,0 13,5 15 8 SSW 10 -
10.08.2018 22:00:00 17,0 13,5 15 8 SSW 15 -
10.08.2018 21:00:00 17,8 17,2 18 10 SSW 15 -
10.08.2018 20:00:00 18,6 16,9 15 8 SSW 10 60
10.08.2018 19:00:00 19,2 17,5 15 8 SSW 15 60
10.08.2018 18:00:00 20,0 18,3 18 10 SSW 10 36

tt = temperature
td = dewpoint
ff = wind speed
dd = wind direction
vv = visibility
sd = sunshine duration

Next stations